Regional Weather Roundup
Issued by NWS Sterling, VA

Home | Current Version | Previous Version | Graphics & Text | Print | Product List | Glossary On
Versions: 1 2 3 4 5 6 7 8 9 10 11 12 13 14 15 16 17 18 19 20 21 22 23 24 25 26 27
000
ASUS41 KLWX 260011
RWRLWX

REGIONAL WEATHER ROUNDUP
NATIONAL WEATHER SERVICE BALTIMORE MD/WASHINGTON DC
800 PM EDT TUE JUL 25 2017

Note: "FAIR" indicates few or no clouds below 12,000 feet
with no significant weather and/or obstructions to visibility.
 TC=TEMPERATURE CELSIUS

 * =Non NWS site. Station does not report precipitation (e.g. rain,
    snow, etc.), thunder, or fog.

DCZ001-MDZ009-015-VAZ040>042-051-053>054-260100-
WASHINGTON METRO

CITY           SKY/WX    TMP DP  RH WIND       PRES   REMARKS
WASHINGTON NAT MOCLDY    78  61  55 N12       30.15R
DULLES         PTCLDY    75  58  55 N9        30.16R
ANDREWS AFB    PTCLDY    74  61  61 N10       30.14R
FT BELVOIR     CLEAR     78  60  53 NW3       30.15R
QUANTICO       CLEAR     78  63  59 N10       30.15R
COLLEGE PARK*  CLOUDY    75  60  58 N6        30.15R
LEESBURG*      CLEAR     77  63  61 N9        30.18R
MANASSAS*      CLEAR     75  60  59 N9        30.16R
GAITHERSBURG*  CLEAR     72  63  73 CALM      30.18R

$$

MDZ006>007-011-014-260100-
BALTIMORE METRO

CITY           SKY/WX    TMP DP  RH WIND       PRES   REMARKS
BWI AIRPORT    MOCLDY    75  63  66 W6        30.14R
MD SCIENCE CTR   N/A     78  62  57 MISG      30.15R
MARTIN STATE   MOCLDY    77  64  65 NW6       30.16R
ANNAPOLIS      CLOUDY    78  66  66 NW8       30.14R
FORT MEADE*    CLOUDY    73  63  68 NW3       30.17R

$$

MDZ012-015-019>023-260100-
MARYLAND EASTERN SHORE

CITY           SKY/WX    TMP DP  RH WIND       PRES   REMARKS
OCEAN CITY     PTCLDY    74  68  81 NE7       30.13R
SALISBURY      CLOUDY    75  68  78 NE7       30.13R
BAY BRIDGE AP* CLOUDY    77  63  61 N7        30.13R
CAMBRIDGE*     MOCLDY    79  63  57 N9        30.13R
EASTON*        MOCLDY    77  63  61 N5        30.17R

$$

MDZ017>025-260100-
SOUTHERN MARYLAND

CITY           SKY/WX    TMP DP  RH WIND       PRES   REMARKS
PATUXENT RIVER MOCLDY    77  65  66 N9        30.13R
ST INIGOES     CLEAR     77  65  66 CALM      30.12R
LEONARDTOWN*   CLOUDY    75  63  64 CALM      30.15R

$$

MDZ003>005-260100-
NORTH CENTRAL MARYLAND

CITY           SKY/WX    TMP DP  RH WIND       PRES   REMARKS
FREDERICK*     MOCLDY    77  66  69 N6        30.19R
HAGERSTOWN APT MOCLDY    74  62  66 NW5       30.18R
WESTMINSTER*   CLOUDY    73  63  68 N3        30.18R

$$

MDZ501>502-260100-
WESTERN MARYLAND

CITY           SKY/WX    TMP DP  RH WIND       PRES   REMARKS
OAKLAND*         N/A     59  55  88 W3        30.24S
CUMBERLAND*    MOCLDY    73  59  60 W3        30.22F

$$

VAZ025>031-260100-
SHENANDOAH VALLEY

CITY           SKY/WX    TMP DP  RH WIND       PRES   REMARKS
WINCHESTER*    CLEAR     70  57  64 N5        30.18S
FRONT ROYAL*   CLEAR     73  57  56 N3        30.17R
LURAY*         CLEAR     73  59  60 NE8       30.17R
NEW MARKET*    MOCLDY    72  57  60 NE7       30.17R
STAUNTON*      CLEAR     75  59  56 NE7       30.18R
WAYNESBORO*    CLEAR     77  62  60 NE6       30.16R

$$

WVZ021-048>050-054>055-260100-
EASTERN WEST VIRGINIA PANHANDLE

CITY           SKY/WX    TMP DP  RH WIND       PRES   REMARKS
MARTINSBURG    CLOUDY    73  59  61 NW5       30.17R
PETERSBURG*    CLEAR     74  59  58 NE3       30.19S

$$

VAZ036>039-050-260100-
CENTRAL FOOTHILLS

CITY           SKY/WX    TMP DP  RH WIND       PRES   REMARKS
CHARLOTTESVILL CLEAR     78  61  55 NE9       30.15R
CULPEPER*      CLEAR     75  62  63 CALM      30.17R
ORANGE*        CLEAR     73  59  60 N5        30.15R
GORDONSVILLE*  CLEAR     75  61  62 NE10      30.15R
WARRENTON*     CLEAR     75  56  51 N3        30.16R

$$

VAZ055>057-260100-
NORTH AND CENTRAL PIEDMONT

CITY           SKY/WX    TMP DP  RH WIND       PRES   REMARKS
FREDERICKSBRG* CLEAR     78  62  58 N6        30.13R
STAFFORD*      CLEAR     74  61  63 N5        30.19R

$$

NCZ024-NYZ072-PAZ021-071-VAZ022-071-260100-
OTHER REGIONAL OBSERVATIONS

CITY           SKY/WX    TMP DP  RH WIND       PRES   REMARKS
NEW YORK CITY  CLOUDY    68  59  73 VRB6      30.20R
PHILADELPHIA   CLOUDY    76  62  62 N7        30.15R
PITTSBURGH     MOCLDY    73  57  57 VRB5      30.20S
ROANOKE        CLEAR     84  56  38 NW8       30.13R
RICHMOND       PTCLDY    78  62  57 NE12      30.12R
RALEIGH        MOCLDY    86  64  47 NE5       30.08R

$$

ANZ530>537-260100-
MARINE OBSERVATIONS

STATION/POSITION TIME  TEMP    WIND        PRES
                       AIR SEA DIR/SP/G
                 (UTC) (F)     (DEG/KT/KT) (MB)
THOMAS PT LIGHT  0000   77 82  330/ 10/ 12   N/A
BALT KEY BRIDGE  2342   77      10/ 12/ 13 1020.3R
COVE POINT       2342   78      20/ 10/ 11 1021.0R
LEWISETTA        2342   80 84   30/  5/  8 1020.0R
SOLOMONS ISLAND  2342   78 84  360/  6/  8   N/A
PINEY POINT      2342           30/  7/  8   N/A

$$





USA.gov is the U.S. government's official web portal to all federal, state and local government web resources and services.